Wind_Speed
20 19 19 19 18 18 18 18 18 17 18 17 17 17 17 17 18 18 18 18 19 19 20 20 20 20 20 21 21 22 22 22 22 22 23 23 24 24 25 25 26 26 27
21 21 20 20 19 19 20 19 19 20 19 19 19 18 19 19 20 20 20 20 21 21 21 21 21 21 22 23 23 24 24 24 25 25 25 26 27 28 28 29 29 30 30
22 22 21 21 21 21 22 21 22 22 22 21 21 21 21 21 21 22 22 22 22 23 23 23 23 23 23 24 24 25 26 26 27 28 29 29 30 31 31 32 33 33 34
23 23 23 23 23 23 24 23 24 23 23 24 24 24 23 23 22 23 23 24 24 24 24 24 25 25 25 25 26 27 28 29 30 30 31 32 33 34 35 36 36 37 38
25 25 25 24 24 25 25 25 25 25 25 25 25 25 25 25 25 25 25 26 26 27 27 27 27 28 28 28 28 29 31 32 32 33 34 35 37 37 38 39 40 41 41
27 27 27 26 26 27 27 26 26 27 27 26 26 26 26 27 27 27 28 29 29 29 29 29 29 29 30 31 32 33 34 35 36 37 38 39 41 41 42 43 44 45 45
29 30 29 29 28 28 28 28 28 28 28 27 28 28 29 29 29 29 30 31 31 31 31 31 32 33 34 34 35 35 36 37 38 40 42 43 44 45 46 46 46 48 49
31 31 31 30 30 29 30 30 30 30 29 29 29 30 30 30 30 30 31 31 32 33 33 33 34 35 36 37 38 38 39 39 40 42 44 46 47 49 49 50 51 52 52
31 32 32 31 30 30 30 30 30 30 30 30 30 30 30 30 30 30 32 33 34 34 35 35 35 36 37 39 40 41 42 43 44 45 47 48 49 50 52 54 55 55 55
29 30 31 32 31 32 31 30 31 31 31 30 29 30 31 32 32 32 33 34 35 35 36 36 37 38 40 41 42 44 45 47 48 49 50 51 52 54 55 55 56 56 57
31 31 32 32 33 34 33 32 32 31 31 32 32 32 32 33 33 34 34 35 36 37 38 39 40 40 42 44 45 47 48 49 50 52 52 54 55 55 56 56 57 59 59
30 30 29 29 29 30 30 31 32 31 32 32 32 32 32 33 34 35 36 37 38 39 40 41 42 44 46 47 48 49 50 51 52 53 54 55 56 57 57 57 58 59 60
27 27 26 26 27 28 28 29 32 33 32 32 32 33 34 35 35 37 38 39 41 42 43 44 46 47 48 49 49 50 51 53 54 54 55 56 57 57 58 59 59 60 60
23 23 24 24 25 25 27 29 30 30 30 31 32 33 35 36 37 39 40 41 42 44 44 46 47 48 49 50 51 52 53 54 54 55 55 56 57 57 57 58 59 59 60
21 20 21 22 22 24 25 26 28 29 30 31 32 34 36 37 39 40 41 42 44 45 46 46 47 48 49 50 51 51 52 53 53 53 53 53 54 54 54 55 56 56 56
21 21 21 22 23 24 26 27 27 29 30 31 33 35 37 38 40 41 42 43 45 46 47 47 47 48 49 49 50 50 50 50 50 51 51 50 50 50 50 51 52 52 51
22 22 23 24 24 25 27 28 29 30 31 32 34 36 37 38 39 40 41 43 44 44 45 45 46 47 47 48 48 49 49 49 48 47 47 46 46 46 46 45 45 45 44
24 24 25 26 27 28 28 30 31 32 33 34 35 37 37 38 39 40 41 41 42 42 43 43 44 45 45 46 46 46 46 45 44 44 43 42 42 41 41 40 39 39 39
26 26 27 28 28 29 30 31 32 33 34 35 36 37 37 38 39 39 39 39 40 40 40 41 42 43 43 43 43 43 42 40 40 39 38 37 37 37 36 35 35 34 34
26 27 28 28 29 30 31 31 32 33 34 34 35 36 37 37 37 37 37 37 37 37 38 38 39 39 39 39 39 37 36 35 34 34 33 33 33 32 31 31 31 31 31
26 27 28 29 29 30 30 31 32 33 33 33 34 34 35 35 35 35 35 35 35 35 35 35 35 35 35 34 33 32 31 30 30 30 29 29 29 29 28 28 28 28 28
28 28 29 29 29 30 31 31 31 31 31 32 32 32 33 33 32 32 33 33 32 32 31 31 31 30 30 29 28 28 27 26 26 26 26 26 25 25 25 25 25 25 25
28 28 28 28 29 29 30 30 30 30 30 30 30 30 30 30 30 31 31 30 29 28 27 27 26 26 25 25 25 24 23 23 23 23 23 23 22 22 22 22 22 23 23
26 26 26 27 27 28 28 28 28 28 28 28 28 28 28 28 29 28 27 27 26 25 24 24 24 23 22 22 21 21 20 20 20 20 20 20 20 19 19 20 20 21 21
24 25 25 26 26 26 26 26 26 26 26 26 26 25 26 26 25 25 24 23 23 22 22 22 21 21 20 20 19 19 18 18 18 18 18 18 18 18 18 18 19 20 20
23 24 24 24 24 24 24 24 24 24 23 23 23 23 23 23 22 21 21 20 20 20 20 19 19 19 18 17 17 16 16 17 16 16 17 17 17 17 17 17 18 19 19
Wind_Direction
236 237 237 237 238 237 237 238 240 242 244 246 250 254 259 267 271 274 277 279 282 283 283 283 284 284 284 281 281 281 279 276 275 276 276 274 274 273 271 271 271 272 272
236 236 237 238 240 240 240 241 243 244 246 250 253 256 262 269 272 272 275 278 280 282 282 281 281 283 283 281 279 279 279 277 276 276 276 275 274 274 273 272 272 272 272
237 238 238 239 241 241 242 243 246 246 248 251 255 259 264 269 272 274 274 277 280 282 283 282 281 281 282 280 278 277 277 277 277 277 276 275 276 276 275 274 273 272 272
237 240 240 241 242 243 245 246 249 251 253 254 257 260 264 267 271 274 276 278 281 282 282 283 281 280 279 278 277 276 276 276 276 276 276 275 275 276 276 275 275 274 274
239 240 242 243 245 245 246 248 251 253 256 258 260 261 264 267 271 275 277 280 283 283 282 281 281 280 278 277 277 277 276 275 274 275 275 274 275 276 276 276 275 274 273
241 242 244 244 245 246 247 251 254 256 259 261 262 264 267 270 273 276 278 280 281 282 281 281 280 280 279 278 278 277 277 275 274 274 274 275 275 275 275 275 275 275 274
242 244 245 247 248 249 251 253 257 259 261 262 264 266 270 273 274 275 278 279 280 280 281 280 280 279 280 279 278 277 278 277 275 275 275 274 274 275 274 275 275 275 274
246 246 247 247 249 252 253 255 257 259 260 262 264 267 271 272 274 275 276 279 280 279 280 281 281 281 280 279 278 278 279 279 279 278 277 276 276 277 274 274 274 274 275
246 247 247 249 251 254 255 257 259 261 262 264 266 267 270 273 274 275 276 277 279 280 280 281 281 281 281 281 280 279 279 279 279 279 279 278 278 277 276 275 276 276 276
248 247 248 251 251 252 255 257 261 261 261 263 266 268 270 274 275 276 277 278 279 280 281 281 281 281 282 282 281 280 280 280 280 280 279 278 278 278 278 278 278 278 277
250 249 248 250 252 253 255 257 258 259 261 263 267 269 271 274 276 277 278 278 279 280 281 281 282 282 283 282 282 282 281 281 281 281 280 280 280 280 280 280 279 278 278
248 249 248 250 253 253 256 256 257 257 261 263 265 268 271 273 276 278 280 281 282 282 282 282 283 284 284 284 283 283 283 283 283 283 282 282 281 281 280 280 279 279 278
252 251 249 252 253 254 255 256 256 259 261 263 266 268 271 273 275 279 280 281 283 283 283 283 284 284 285 285 285 285 285 285 285 285 284 283 283 283 282 281 281 280 279
255 255 253 253 251 253 255 255 256 259 262 265 268 271 274 276 278 281 282 283 284 285 285 285 285 285 285 286 286 286 287 287 287 286 286 286 286 285 284 283 283 282 281
257 252 251 253 253 254 255 256 258 261 265 267 271 274 276 278 280 281 282 283 284 285 285 286 287 287 287 287 288 288 289 289 289 289 289 289 288 287 286 286 285 284 283
254 252 254 255 256 259 260 261 262 265 268 271 272 275 278 280 282 283 284 285 285 286 286 287 287 288 288 289 290 290 291 291 291 291 291 290 290 290 289 289 288 286 284
252 251 252 255 259 262 264 264 266 269 272 274 276 278 280 281 283 284 285 285 286 286 286 287 288 289 289 290 291 292 293 294 294 293 292 292 292 292 292 292 290 289 287
252 251 252 255 260 263 266 267 269 272 275 276 278 280 282 283 285 285 286 286 287 287 287 289 290 290 291 293 294 295 296 296 296 295 295 295 295 295 296 295 294 293 292
253 255 256 258 261 265 268 269 272 274 276 278 280 282 283 285 286 286 286 287 288 288 289 291 292 293 294 295 296 297 297 296 296 296 297 298 298 299 299 299 298 297 296
255 256 259 262 264 266 268 271 274 276 279 281 282 284 284 285 286 287 288 289 290 291 293 294 294 296 297 297 298 299 298 298 298 299 300 301 302 303 304 304 303 303 301
256 258 262 264 265 268 271 274 277 279 281 283 284 284 285 285 287 288 289 291 293 294 295 296 297 298 299 300 301 302 302 303 303 305 306 306 306 306 306 307 307 308 307
259 262 265 266 268 271 273 276 278 281 282 284 284 285 286 287 289 291 291 293 295 296 298 300 301 302 303 303 304 305 306 306 307 309 310 311 312 312 311 311 312 313 313
261 264 266 268 270 273 275 277 279 281 283 285 286 287 288 289 291 292 294 296 297 299 300 303 304 305 306 307 308 308 309 310 313 314 315 316 317 316 316 316 317 319 320
262 265 267 270 272 274 276 277 280 281 284 285 287 288 290 292 294 295 296 297 298 299 301 304 305 306 308 310 312 312 313 315 318 320 321 323 323 323 323 324 325 327 328
264 267 269 271 273 274 276 277 279 282 283 286 288 290 292 294 295 296 297 298 299 300 302 304 306 307 309 312 313 314 316 319 322 325 326 328 329 328 329 330 332 334 334
267 269 271 272 273 274 275 277 280 282 285 288 290 292 294 296 297 297 297 298 300 302 303 305 306 308 309 311 314 316 317 320 324 328 330 332 334 336 337 337 338 340 342
Height
5875 5876 5877 5878 5880 5881 5882 5883 5884 5885 5885 5885 5886 5886 5886 5885 5885 5884 5883 5883 5882 5881 5880 5879 5878 5877 5876 5875 5874 5874 5874 5873 5872 5872 5871 5871 5870 5869 5869 5868 5867 5867 5866
5871 5872 5873 5875 5876 5878 5879 5880 5880 5881 5881 5882 5882 5882 5882 5882 5881 5880 5879 5879 5878 5877 5876 5875 5874 5873 5872 5870 5869 5869 5868 5868 5867 5866 5866 5865 5864 5863 5863 5862 5861 5860 5860
5867 5868 5870 5871 5872 5873 5874 5875 5876 5877 5877 5878 5878 5878 5878 5877 5877 5876 5875 5874 5874 5872 5871 5870 5870 5868 5867 5866 5864 5864 5863 5862 5861 5860 5859 5858 5858 5857 5856 5855 5854 5853 5852
5862 5864 5866 5867 5868 5869 5870 5871 5872 5872 5873 5873 5874 5874 5873 5873 5872 5871 5871 5870 5869 5868 5866 5865 5864 5863 5862 5860 5859 5858 5857 5856 5854 5853 5852 5851 5851 5849 5848 5847 5846 5845 5844
5857 5859 5861 5862 5863 5864 5865 5866 5867 5868 5868 5869 5869 5869 5869 5868 5868 5867 5866 5865 5864 5862 5861 5860 5859 5857 5856 5855 5854 5852 5851 5849 5848 5846 5845 5844 5843 5841 5840 5839 5837 5836 5834
5853 5855 5856 5857 5858 5859 5860 5861 5862 5863 5863 5863 5863 5864 5863 5863 5863 5862 5861 5859 5858 5857 5855 5854 5852 5851 5850 5849 5847 5846 5844 5842 5840 5838 5837 5836 5834 5832 5831 5829 5827 5825 5824
5847 5849 5850 5851 5852 5854 5855 5855 5856 5857 5857 5858 5858 5858 5857 5857 5856 5856 5854 5853 5852 5850 5849 5847 5846 5844 5843 5842 5840 5838 5836 5834 5832 5830 5828 5826 5824 5822 5821 5819 5816 5814 5812
5841 5842 5844 5845 5846 5848 5849 5849 5850 5851 5851 5852 5852 5852 5851 5851 5850 5849 5848 5846 5845 5843 5842 5840 5839 5837 5835 5833 5832 5830 5827 5825 5823 5821 5818 5816 5814 5812 5809 5807 5805 5802 5800
5835 5836 5837 5838 5840 5841 5842 5843 5844 5845 5845 5845 5845 5845 5845 5844 5843 5842 5841 5839 5838 5836 5834 5833 5831 5829 5827 5825 5823 5821 5818 5816 5813 5811 5808 5805 5803 5800 5797 5795 5792 5789 5786
5828 5829 5830 5832 5833 5834 5836 5836 5837 5838 5839 5839 5839 5838 5838 5837 5836 5835 5834 5832 5830 5828 5826 5824 5822 5820 5818 5815 5813 5810 5808 5805 5802 5799 5796 5793 5790 5787 5784 5781 5779 5776 5773
5822 5822 5824 5825 5826 5828 5829 5830 5831 5831 5832 5832 5832 5831 5830 5829 5828 5827 5826 5824 5822 5820 5818 5815 5813 5810 5808 5805 5803 5800 5797 5794 5790 5787 5784 5781 5777 5774 5771 5768 5765 5762 5759
5815 5816 5817 5818 5819 5821 5822 5823 5824 5824 5824 5824 5824 5824 5823 5822 5821 5819 5817 5816 5814 5811 5809 5806 5803 5800 5797 5794 5791 5788 5785 5781 5778 5775 5771 5768 5764 5760 5757 5753 5750 5746 5743
5809 5810 5811 5812 5813 5814 5815 5815 5816 5817 5817 5817 5816 5816 5815 5814 5812 5811 5809 5806 5804 5802 5799 5796 5793 5790 5786 5783 5779 5776 5772 5769 5765 5761 5758 5753 5749 5745 5742 5738 5734 5730 5727
5804 5805 5805 5806 5807 5808 5808 5808 5809 5809 5809 5809 5809 5808 5807 5805 5804 5802 5799 5797 5794 5791 5788 5785 5782 5778 5775 5771 5767 5763 5760 5756 5751 5747 5743 5738 5734 5730 5726 5722 5718 5714 5711
5799 5799 5800 5801 5801 5802 5802 5802 5802 5802 5802 5802 5801 5800 5798 5797 5794 5792 5790 5787 5784 5781 5777 5774 5770 5767 5763 5759 5755 5751 5747 5742 5738 5733 5729 5724 5720 5715 5711 5706 5702 5698 5694
5793 5794 5794 5795 5795 5796 5796 5795 5795 5795 5795 5794 5793 5791 5789 5787 5785 5782 5780 5777 5774 5770 5766 5763 5759 5755 5751 5747 5743 5738 5734 5730 5725 5720 5716 5711 5706 5702 5697 5692 5688 5684 5679
5787 5788 5789 5789 5789 5789 5789 5788 5788 5787 5786 5785 5784 5782 5780 5778 5775 5773 5770 5766 5763 5759 5756 5752 5748 5744 5740 5736 5731 5727 5722 5717 5713 5708 5703 5699 5694 5689 5684 5679 5675 5670 5666
5781 5782 5782 5783 5783 5782 5782 5781 5780 5779 5778 5777 5775 5773 5771 5768 5766 5763 5759 5756 5752 5749 5745 5741 5737 5733 5729 5725 5720 5716 5711 5706 5701 5697 5692 5688 5683 5678 5673 5668 5663 5659 5654
5775 5775 5776 5776 5776 5775 5774 5774 5773 5771 5770 5768 5766 5764 5761 5758 5756 5753 5749 5746 5742 5739 5735 5731 5727 5723 5719 5714 5710 5706 5701 5696 5692 5687 5683 5678 5674 5669 5664 5659 5654 5650 5645
5768 5768 5768 5768 5768 5767 5767 5765 5764 5763 5761 5759 5757 5754 5752 5749 5746 5743 5740 5736 5733 5729 5726 5722 5718 5713 5709 5705 5701 5697 5692 5688 5683 5679 5674 5670 5665 5660 5656 5651 5647 5642 5638
5760 5761 5761 5760 5760 5759 5758 5757 5756 5754 5752 5750 5748 5745 5742 5740 5737 5734 5731 5728 5724 5721 5717 5713 5709 5705 5701 5697 5693 5688 5684 5680 5676 5672 5667 5663 5658 5654 5649 5645 5640 5636 5631
5753 5753 5752 5752 5752 5751 5750 5749 5747 5745 5743 5741 5739 5736 5734 5731 5728 5725 5722 5719 5716 5713 5709 5705 5702 5698 5694 5690 5686 5682 5678 5675 5671 5666 5661 5657 5653 5648 5644 5639 5635 5631 5626
5745 5744 5744 5744 5743 5742 5741 5740 5739 5737 5735 5733 5731 5728 5725 5723 5720 5717 5714 5711 5709 5705 5702 5699 5695 5691 5688 5684 5681 5677 5673 5669 5665 5661 5657 5652 5648 5644 5639 5635 5631 5627 5622
5737 5737 5736 5736 5735 5734 5733 5732 5731 5729 5727 5725 5723 5720 5718 5715 5713 5710 5707 5705 5702 5699 5696 5692 5689 5686 5683 5679 5676 5672 5669 5665 5662 5658 5653 5649 5645 5641 5636 5632 5628 5623 5619
5730 5729 5729 5729 5728 5727 5726 5725 5724 5722 5720 5718 5716 5713 5711 5709 5706 5704 5701 5698 5696 5693 5690 5687 5684 5681 5678 5675 5672 5668 5665 5662 5659 5655 5651 5647 5643 5639 5634 5630 5625 5621 5616
5723 5723 5722 5722 5721 5720 5719 5718 5717 5716 5714 5712 5710 5707 5705 5703 5700 5698 5695 5693 5690 5688 5685 5682 5679 5677 5674 5671 5668 5665 5662 5659 5656 5653 5649 5645 5641 5637 5633 5628 5624 5619 5615